Regional Weather Roundup
Issued by NWS Newport/Morehead, NC

Current Version | Previous Version | Text Only | Print | Product List | Glossary On
Versions: 1 2 3 4 5 6 7 8 9 10 11 12 13 14 15 16 17 18 19 20 21 22 23 24 25 26 27 28 29 30 31 32 33 34 35 36 37 38 39 40 41 42 43 44 45 46 47 48 49 50
000 ASUS42 KMHX 020412 RWRMHX WEATHER ROUNDUP FOR EASTERN NORTH CAROLINA NATIONAL WEATHER SERVICE NEWPORT/MOREHEAD CITY NC 1100 PM EST SUN MAR 01 2015 NOTE: "FAIR" INDICATES FEW OR NO CLOUDS BELOW 12,000 FEET WITH NO SIGNIFICANT WEATHER AND/OR OBSTRUCTIONS TO VISIBILITY NCZ015>017-031-032-045>047-102-103-020500- NORTH COAST CITY SKY/WX TMP DP RH WIND PRES REMARKS EDENTON CLOUDY 36 35 98 SW5 30.29R FOG ELIZABETH CITY CLOUDY 37 35 92 W5 30.29F KITTY HAWK LGT RAIN 38 38 100 SW3 30.27F MANTEO CLOUDY 37 37 100 S5 30.29F $$ NCZ045>047-081-094-103-104-020500- CENTRAL COAST CITY SKY/WX TMP DP RH WIND PRES REMARKS FRISCO LGT RAIN 41 41 100 NW9 30.32S SWANQUARTER N/A 39 N/A N/A S3 30.27F $$ NCZ095-097-098-100-101-020500- SOUTHERN COAST CITY SKY/WX TMP DP RH WIND PRES REMARKS BEAUFORT CLOUDY 45 45 100 CALM 30.31F CEDAR ISLAND N/A 41 N/A N/A NW2 30.36F JACKSONVILLE MOCLDY 42 40 92 CALM 30.32F FOG PINEY ISLAND N/A N/A N/A N/A MISG 30.32F WILMINGTON CLOUDY 42 41 96 W3 30.34F FOG $$ NCZ011>013-027>030-043-044-078>080-089-090>093-098-020500- COASTAL PLAIN CITY SKY/WX TMP DP RH WIND PRES REMARKS AHOSKIE CLOUDY 32 32 99 CALM 30.30F CLINTON CLOUDY 38 38 100 SW3 30.34F FOG ELIZABETHTOWN CLOUDY 39 39 100 CALM 30.34S FOG GOLDSBORO CLOUDY 38 38 100 W3 30.30F GREENVILLE CLOUDY 36 36 100 CALM 30.32S FOG HAVELOCK LGT RAIN 42 41 96 CALM 30.33F FOG KENANSVILLE CLOUDY 39 38 99 CALM 30.34F FOG KINSTON CLOUDY 39 39 98 SW3 30.33F FOG NEW BERN CLOUDY 41 39 93 W3 30.33R RICHLANDS CLOUDY 39 37 93 W5 30.35R ROCKY MOUNT CLOUDY 36 35 96 CALM 30.31F WASHINGTON CLOUDY 38 37 97 W3 30.32S WHITEVILLE CLOUDY 40 39 96 CALM 30.36R FOG $$ AMZ130-135-150-152-154-156-158-170-250-252-270-ANZ085-086-088-633-658-670-020500- MARINE OBSERVATIONS STATION/POSITION TIME TEMP WIND PRES WAVE SWELL AIR SEA DIR/SP/G HT/PER HT/PER (UTC) (F) (DEG/KT/KT) (MB) (FT/S) (FT/S) CHESAPEAKE LIGHT 0300 32 230/ 4/ 4 1025.9 64 E VA BEACH 0350 43 56 300/ 10/ 12 1024.5 4/ 7 3/ 7 DUCK 0318 37 34 230/ 6/ 7 1025.3 2 E DUCK 0311 N/A 3/ 6 10 NE DUCK 0322 36 N/A 4/ 6 OREGON INLET 0300 38 41 310/ 9/ 13 1026.6 HATTERAS CG 0300 41 41 310/ 5/ 6 1027.1 CAPE LOOKOUT 0400 45 350/ 4/ 5 1026.8 BEAUFORT LAB 0300 45 43 340/ 9/ 11 1026.8 27 SE WRIGHTSVLE NOT AVBL 5 SE WRIGHTSVLE NOT AVBL 225 S CAPE HAT 0350 70 72 170/ 16/ 17 1028.9 8/ 8 5/ 8 41 SE CHARLESTON 0350 54 68 360/ 10/ 12 1027.9 6/ 8 5/ 8 $$

USA.gov is the U.S. government's official web portal to all federal, state and local government web resources and services.